Terminal Aerodrome Forecast
Issued by NWS

Home | Current Version | Previous Version | Text Only | Print | Product List | Glossary On
Versions: 1 2 3 4 5 6 7 8 9 10 11 12 13 14 15 16 17 18
000
FTUS41 KAKQ 231100
TAFPHF
TAF
KPHF 231120Z 2312/2412 34010KT P6SM FEW020 SCT090
     FM231400 31017G26KT P6SM SKC
     FM232300 33010KT P6SM SKC=

USA.gov is the U.S. government's official web portal to all federal, state and local government web resources and services.